Maugansville, MD

8:12 AM EDT on August 28, 2016 (GMT -0400)
Hagerstown Regional-Henson

Weather History for KHGR - May, 2013

Change the Weather History Date:

Sunday, May 12, 2013

  Actual Average Record
Temperature  
Mean Temperature 56 °F 61 °F  
Max Temperature 61 °F 71 °F 86 °F (2000)
Min Temperature 51 °F 51 °F 41 °F (2008)
Degree Days  
Heating Degree Days 9 6  
Month to date heating degree days 67 83  
Since 1 July heating degree days 4851 5097  
Cooling Degree Days 0 1  
Month to date cooling degree days 3 12  
Year to date cooling degree days 29 27  
Growing Degree Days 4 (Base 50)    
Moisture  
Dew Point 34 °F    
Average Humidity 51    
Maximum Humidity 72    
Minimum Humidity 29    
Precipitation  
Precipitation 0.00 in 0.13 in 0.80 in (2008)
Month to date precipitation 1.50 1.44  
Year to date precipitation 9.46 13.61  
Sea Level Pressure  
Sea Level Pressure 29.91 in    
Wind  
Wind Speed 15 mph (WNW)    
Max Wind Speed 26 mph    
Max Gust Speed 32 mph    
Visibility 10 miles    
Events      
T = Trace of Precipitation, MM = Missing Value Source: NWS Daily Summary

Daily Weather History Graph

Daily Weather History Graph

Search for Another Location

Airport or City:

Trip Planner

Search our weather history database for the weather conditions in past years. The results will help you decide how hot, cold, wet, or windy it might be!

Date:

Astronomy

May. 12, 2013 Rise Set
Actual Time 5:59 AM EDT 8:16 PM EDT
Civil Twilight 5:28 AM EDT 8:46 PM EDT
Nautical Twilight 4:51 AM EDT 9:23 PM EDT
Astronomical Twilight 4:10 AM EDT 10:04 PM EDT
Moon 7:52 AM EDT (5/12) 10:41 PM EDT (5/12)
Length of Visible Light 15h 17m
Length of Day
14h 17m
Waxing Crescent, 6% of the Moon is Illuminated
May 12
Waxing Crescent
May 18
First Quarter
May 25
Full
May 31
Last Quarter
Jun 8
New

Hourly Weather History & Observations

Time (EDT) Temp. Dew Point Humidity Pressure Visibility Wind Dir Wind Speed Gust Speed Precip Events Conditions
12:53 AM 61.0 °F 48.9 °F 64% 29.82 in 10.0 mi West 8.1 mph - N/A   Overcast
1:53 AM 60.1 °F 48.9 °F 67% 29.81 in 10.0 mi West 8.1 mph - N/A   Overcast
2:53 AM 55.9 °F 46.9 °F 72% 29.81 in 10.0 mi NW 9.2 mph - N/A   Clear
3:53 AM 55.0 °F 44.1 °F 67% 29.81 in 10.0 mi West 4.6 mph - N/A   Clear
4:53 AM 54.0 °F 44.1 °F 69% 29.81 in 10.0 mi West 6.9 mph - N/A   Clear
5:53 AM 55.0 °F 46.0 °F 72% 29.82 in 10.0 mi West 12.7 mph - N/A   Overcast
6:53 AM 52.0 °F 39.0 °F 61% 29.85 in 10.0 mi WNW 16.1 mph - N/A   Overcast
7:53 AM 52.0 °F 39.9 °F 63% 29.88 in 10.0 mi West 11.5 mph - N/A   Mostly Cloudy
8:53 AM 55.0 °F 41.0 °F 59% 29.88 in 10.0 mi WNW 18.4 mph - N/A   Overcast
9:53 AM 54.0 °F 30.0 °F 40% 29.90 in 10.0 mi WNW 19.6 mph - N/A   Clear
10:53 AM 54.0 °F 28.0 °F 37% 29.91 in 10.0 mi WNW 17.3 mph 25.3 mph N/A   Clear
11:53 AM 57.0 °F 28.0 °F 33% 29.90 in 10.0 mi WNW 20.7 mph 26.5 mph N/A   Clear
12:53 PM 59.0 °F 28.9 °F 32% 29.90 in 10.0 mi NW 20.7 mph 28.8 mph N/A   Clear
1:53 PM 57.0 °F 28.9 °F 34% 29.91 in 10.0 mi NW 20.7 mph 26.5 mph N/A   Mostly Cloudy
2:53 PM 60.1 °F 28.9 °F 31% 29.92 in 10.0 mi West 23.0 mph 29.9 mph N/A   Partly Cloudy
3:53 PM 55.9 °F 28.0 °F 34% 29.92 in 10.0 mi WNW 13.8 mph 20.7 mph N/A   Mostly Cloudy
4:18 PM 57.2 °F 26.6 °F 31% 29.90 in 10.0 mi West 15.0 mph 26.5 mph N/A   Scattered Clouds
4:53 PM 57.0 °F 27.0 °F 32% 29.92 in 10.0 mi West 18.4 mph 29.9 mph N/A   Overcast
5:53 PM 55.9 °F 28.9 °F 36% 29.94 in 10.0 mi WNW 18.4 mph 23.0 mph N/A   Overcast
6:53 PM 55.9 °F 27.0 °F 33% 29.96 in 10.0 mi West 17.3 mph - N/A   Partly Cloudy
7:53 PM 53.1 °F 26.1 °F 35% 29.97 in 10.0 mi WNW 12.7 mph 21.9 mph N/A   Scattered Clouds
8:53 PM 51.1 °F 25.0 °F 36% 30.00 in 10.0 mi West 16.1 mph 20.7 mph N/A   Partly Cloudy
9:53 PM 50.0 °F 25.0 °F 38% 30.04 in 10.0 mi WNW 15.0 mph 26.5 mph N/A   Clear
10:53 PM 48.0 °F 27.0 °F 44% 30.06 in 10.0 mi West 8.1 mph - N/A   Clear
11:53 PM 48.0 °F 27.0 °F 44% 30.06 in 10.0 mi WSW 5.8 mph - N/A   Clear